星链-31686 (STARLINK-31686 )

导读

STARLINK-31686是美国SpaceX星链计划中的一颗卫星,于2024年4月23日发射升空。作为星链星座组网的一部分,它主要服务于全球低轨卫星互联网项目,旨在为全球用户提供高速互联网接入服务,进一步完善星链星座的覆盖范围与网络稳定性。

基本信息
目录编号:
59579
目录名称:
STARLINK-31686
国际标识:
2024-076R
轨道中心:
EARTH
卫星名称:
星链-31686
卫星全名:
星链-31686 (STARLINK-31686 )
卫星状态:
在轨 (已飞行786 天)
发射日期:
2024-04-23 UTC
国别 :
美国 (US)
星等 :
--
轨道信息
数据来源 国际轨道数据 AOE轨道数据
星历时间 2026-06-17T01:35:31+0800
1天前
查看轨道信息
2026-06-15T06:00:00+0800
3天前
查看轨道信息
半长轴 6861.217km 6861.146km
偏心率 0.0004827 0.000189
轨道倾角 43.023° 43.000°
近地点辐角 285.187° 275.983°
升交点赤经 169.350° 179.600°
平近点角 74.845° 163.858°
近地点 479.768km 481.712km
远地点 486.392km 484.306km
周期 94.267分钟 94.266分钟
每日圈数 15.275699 15.275935
详细信息
固有亮度:
5
最大亮度:
1.5
卫星平台:
Starlink v2.0 mini
覆盖范围:
全球
运营商:
太空探索技术公司
运营商所在国:
美国
制造商(研发单位):
太空探索技术公司
制造商所在国:
美国
使用方式:
暂无
卫星简介
星链(Starlink)计划是由太空探索技术公司(SpaceX)提出的一个巨型低轨卫星互联网星座项目,计划在2019年至2024年间在太空搭建由约1.2万颗卫星组成的“星链”网络,其中1584颗将部署在地球上空550千米处的近地轨道,并从2020年开始工作。该卫星仍在工作。
2D轨道图
3D轨道图
轨道高度分析图
轨道倾角分析图
轨道综合分析图
查看轨道综合分析图